Home   Weather   Medellin   Past weeks

Flag for Colombia Past Weather in Medellin, Colombia — Yesterday and Last 2 Weeks

Now
59 °F

Broken clouds.


Feels Like: 60 °F
Forecast: 62 / 74 °F
Wind: 3 mph from Northeast

Location: Rionegro / J. M. Cordova

Current Time: Apr 25, 2017 at 7:38:56 am

Latest Report: Apr 25, 2017 at 7:00 am


Visibility: 2 mi

Pressure: 30.28 "Hg (25.41 "Hg at 1479m altitude)

Humidity: 94%

Dew Point: 57 °F

Location of MedellinLocation

Past Weather in Medellin — Graph

°F

Medellin Temperature Yesterday

Maximum temperature yesterday: 70 °F (at 1:00 pm)
Minimum temperature yesterday: 59 °F (at 5:30 am)
Average temperature yesterday: 64 °F

High & Low Weather Summary for the Past Weeks

 TemperatureHumidityPressure
High73 °F (Apr 23, 1:00 pm)100% (Apr 19, 3:00 am)30.37 "Hg (Apr 19, 3:00 am)
Low52 °F (Apr 22, 5:10 am)53% (Apr 23, 1:00 pm)30.16 "Hg (Apr 23, 4:00 pm)
Average62 °F83%30.28 "Hg
* Reported Apr 17 4:00 pm — Apr 25 6:00 am, Medellin, Weather by CustomWeather, © 2017

Note: Actual official high and low records may vary slightly from our data, if they occured in-between our weather recording intervals... More about our weather records

Advertising

Medellin Weather History for the Previous 24 Hours

Scroll right to see more
 ConditionsComfort  
Time TempWeatherWind HumidityBarometerVisibility
6:00 am
Tue, Apr 25
59 °FBroken clouds.2 mph100%30.27 "Hg2 mi
5:30 am59 °FFog.No wind100%30.26 "Hg4 mi
5:00 am61 °FFog.2 mph94%30.25 "Hg4 mi
4:00 am61 °FFog.No wind94%30.24 "Hg5 mi
3:00 am59 °FFog.No wind100%30.24 "Hg5 mi
2:00 am59 °FFog.No wind100%30.26 "HgN/A
1:00 am61 °FFog.No wind94%30.29 "HgN/A
12:00 am61 °FFog.3 mph94%30.30 "HgN/A
11:00 pm
Mon, Apr 24
63 °FScattered showers. Passing clouds.3 mph94%30.33 "Hg5 mi
10:00 pm63 °FPassing clouds.2 mph94%30.30 "Hg5 mi
9:00 pm63 °FPassing clouds.5 mph94%30.28 "HgN/A
8:00 pm64 °FPassing clouds.5 mph88%30.25 "HgN/A
7:00 pm64 °FPassing clouds.5 mph88%30.23 "HgN/A
6:00 pm66 °FBroken clouds.7 mph73%30.21 "HgN/A
5:00 pm68 °FBroken clouds.7 mph60%30.19 "HgN/A
4:00 pm70 °FPartly sunny.7 mph57%30.19 "HgN/A
3:00 pm70 °FBroken clouds.7 mph57%30.19 "HgN/A
2:00 pm70 °FPartly sunny.9 mph60%30.22 "HgN/A
1:00 pm70 °FPartly sunny.7 mph60%30.25 "HgN/A
12:00 pm68 °FOvercast.5 mph64%30.29 "HgN/A
11:00 am66 °FOvercast.3 mph68%30.30 "HgN/A
10:00 am66 °FOvercast.3 mph68%30.30 "HgN/A
9:00 am63 °FMore clouds than sun.3 mph88%30.32 "HgN/A
8:00 am63 °FScattered showers. Broken clouds.2 mph88%30.32 "Hg5 mi
7:00 am61 °FScattered showers. Broken clouds.5 mph94%30.30 "Hg5 mi
Weather by CustomWeather, © 2017

See weather overviewHow to use our weather pages